[[{"header":{"parameterUnit":"m.s-1","parameterCategory":1,"la1":30.2991,"la2":30.254,"lo1":-89.0895,"lo2":-89.0444,"dy":0.0017,"dx":0.0017,"nx":28,"ny":28,"refTime":"2024-04-16T09:00:00:Z","depth":0,"parameterNumber":2,"parameterNumberName":"U-component_of_WINDS"},"data":[0,0,0,0,0,0,0,0,0,0,0,0,0,0,0,0,0,0,0,0,0,0,0,0,0,0,0,0,0,0,0,0,0,0,0,0,0,0,0,0,0,0,0,0,0,0,0,0,0,0,0,0,0,0,0,0,0,0,-3.6993,-3.6995,0,-3.7112,-3.7113,-3.7114,-3.7121,-3.712,-3.7118,-3.7117,-3.7239,-3.7244,-3.7248,0,0,0,0,0,0,0,0,0,0,0,0,0,-3.6775,-3.6779,-3.6993,-3.6995,-3.6996,-3.7111,-3.7113,-3.7115,-3.7121,-3.712,-3.7118,-3.7116,-3.7238,-3.7243,-3.7249,0,0,0,0,0,0,0,0,0,0,0,0,0,-3.6879,-3.678,-3.6993,-3.7013,-3.7016,-3.7111,-3.7113,-3.7115,-3.7122,-3.712,-3.7118,-3.7116,-3.7236,-3.7243,-3.7249,-3.7332,0,0,-3.727,-3.7273,0,0,0,0,0,0,0,0,-3.6873,-3.6887,-3.7009,-3.7012,-3.7016,-3.7099,-3.7081,-3.7188,-3.7122,-3.7082,-3.7117,-3.7115,-3.7194,-3.7205,-3.7231,-3.7338,-3.7343,-3.7271,-3.7275,-3.7278,-3.728,0,0,0,0,0,0,0,-3.6866,-3.6882,-3.704,-3.7011,-3.7015,-3.7017,-3.703,-3.7101,-3.7148,-3.7085,-3.7086,-3.71,-3.7196,-3.7225,-3.7234,-3.7345,-3.727,-3.7276,-3.7281,-3.7283,-3.7525,-3.7527,0,0,0,0,0,0,-3.6855,-3.6876,-3.7036,-3.7044,-3.6938,-3.7023,-3.7037,-3.7075,-3.7147,-3.7156,-3.7101,-3.71,-3.7214,-3.7226,-3.7238,-3.7339,-3.7278,-3.7284,-3.7288,-3.7522,-3.7525,-3.7528,0,0,0,0,0,0,-3.685,-3.6869,-3.7032,-3.696,-3.6981,-3.7029,-3.7071,-3.7078,-3.7107,-3.716,-3.7168,-3.7122,-3.7213,-3.7229,-3.7308,-3.7343,-3.7287,-3.7293,-3.752,-3.7523,-3.7526,-3.7541,0,0,0,0,0,0,-3.6844,-3.6867,-3.6898,-3.6961,-3.6985,-3.7099,-3.7073,-3.7082,-3.7118,-3.7117,-3.7181,-3.719,-3.7213,-3.7298,-3.7315,-3.7352,-3.7298,-3.7517,-3.7521,-3.7525,-3.7538,-3.7545,-3.7551,0,0,0,0,0,-3.6836,-3.6898,-3.69,-3.6919,-3.7025,-3.7101,-3.7115,-3.7139,-3.7121,-3.7153,-3.7187,-3.7188,-3.7337,-3.7306,-3.7326,-3.7364,-3.7514,-3.752,-3.7525,-3.7535,-3.7543,-3.755,0,0,0,0,0,0,-3.6839,-3.6907,-3.6909,-3.6994,-3.7042,-3.7102,-3.7143,-3.7148,-3.7202,-3.7199,-3.7227,-3.7242,-3.732,-3.7351,-3.7315,-3.7448,-3.7424,-3.7433,-3.7425,-3.7433,-3.744,-3.7429,-3.7304,0,0,0,0,0,-3.685,-3.6905,-3.6962,-3.7031,-3.7055,-3.7095,-3.7129,-3.7144,-3.7195,-3.7215,-3.7255,-3.7304,-3.7363,-3.74,-3.7457,-3.7543,-3.7557,-3.7579,-3.7586,-3.7591,-3.7598,-3.7645,-3.7655,-3.7545,-3.7545,-3.7545,0,0,-3.6872,-3.6916,-3.695,-3.7033,-3.7072,-3.7129,-3.7112,-3.7173,-3.7216,-3.7225,-3.7301,-3.7333,-3.739,-3.7473,-3.7512,-3.7501,-3.7632,-3.7598,-3.7601,-3.7606,-3.7651,-3.7662,-3.7671,-3.7549,-3.7548,-3.7547,0,0,-3.6942,-3.6981,-3.7042,-3.7081,-3.714,-3.7167,-3.7181,-3.7242,-3.7262,-3.734,-3.7347,-3.7399,-3.7499,-3.7539,-3.7573,-3.7658,-3.766,-3.7676,-3.7709,-3.7755,-3.7763,-3.7771,-3.78,-3.781,-3.7684,-3.7684,-3.7684,0,-3.6962,-3.7047,-3.7073,-3.7134,-3.717,-3.7181,-3.7243,-3.7281,-3.7355,-3.738,-3.7367,-3.7492,-3.7532,-3.7623,-3.7644,-3.7672,-3.7689,-3.7668,-3.776,-3.7768,-3.7776,-3.7803,-3.7814,-3.7685,-3.7685,-3.7685,-3.7685,0,-3.7069,-3.7128,-3.7171,-3.7241,-3.7283,-3.7345,-3.738,-3.7419,-3.7431,-3.7459,-3.7538,-3.7586,-3.7652,-3.7675,-3.7688,-3.7769,-3.7761,-3.7754,-3.7729,-3.7787,-3.7813,-3.7825,-3.7687,-3.7687,-3.7686,-3.7686,0,0,-3.7142,-3.7226,-3.7241,-3.7273,-3.7339,-3.7386,-3.7448,-3.7512,-3.7544,-3.7596,-3.7648,-3.7733,-3.7727,-3.7765,-3.7783,-3.7823,-3.7886,-3.7811,-3.7813,-3.7821,-3.7977,-3.798,-3.7992,-3.7889,-3.7891,-3.7893,-3.7971,0,-3.7217,-3.7326,-3.7351,-3.7446,-3.75,-3.7512,-3.7566,-3.7613,-3.7641,-3.7692,-3.7724,-3.7783,-3.7771,-3.7794,-3.7835,-3.7869,-3.7917,-3.7865,-3.7937,-3.7939,-3.7919,-3.8006,-3.8009,-3.8081,-3.7982,-3.7984,-3.7985,0,-3.7318,-3.7371,-3.747,-3.7528,-3.7552,-3.76,-3.7661,-3.771,-3.7763,-3.7781,-3.7824,-3.7837,-3.7903,-3.7878,-3.7968,-3.7931,-3.7963,-3.7985,-3.7988,-3.7994,-3.7963,-3.8011,-3.8104,-3.8114,-3.8002,-3.8001,-3.8,0,-3.7358,-3.7455,-3.7526,-3.7554,-3.7624,-3.7657,-3.7688,-3.774,-3.7777,-3.783,-3.7854,-3.7915,-3.7948,-3.7995,-3.8025,-3.8004,-3.8113,-3.809,-3.8128,-3.8127,-3.8148,-3.8146,-3.8245,-3.8173,-3.8173,-3.8173,-3.8172,0,-3.7438,-3.7498,-3.7545,-3.7589,-3.7656,-3.7686,-3.7752,-3.7783,-3.7829,-3.7879,-3.7895,-3.7942,-3.7979,-3.8032,-3.8056,-3.8126,-3.8141,-3.8157,-3.8162,-3.8154,-3.8152,-3.8173,-3.8168,-3.8175,-3.8175,-3.8174,-3.8174,0,-3.7494,-3.7528,-3.7606,-3.7667,-3.7683,-3.773,-3.7782,-3.7825,-3.7854,-3.7918,-3.7934,-3.798,-3.8043,-3.8078,-3.8157,-3.8173,-3.825,-3.8254,-3.8232,-3.8233,-3.8269,-3.8264,-3.8383,-3.84,-3.8319,-3.8319,-3.832,0,-3.7541,-3.7587,-3.7652,-3.7686,-3.7717,-3.7773,-3.781,-3.7842,-3.788,-3.7945,-3.798,-3.8043,-3.8095,-3.8194,-3.8235,-3.8295,-3.83,-3.8337,-3.8309,-3.8299,-3.8298,-3.8293,-3.8297,-3.8341,-3.8342,-3.8342,-3.8343,0,-3.762,-3.7635,-3.7688,-3.7747,-3.7791,-3.7839,-3.7887,-3.7915,-3.7954,-3.7997,-3.806,-3.8101,-3.8181,-3.8243,-3.8307,-3.8339,-3.8348,-3.8352,-3.8364,-3.8355,-3.8339,-3.8346,-3.8242,-3.8348,-3.8348,-3.8348,-3.8347,-3.8347,-3.7672,-3.7713,-3.7765,-3.7823,-3.7862,-3.7907,-3.795,-3.7984,-3.8037,-3.8104,-3.812,-3.8187,-3.824,-3.8326,-3.836,-3.8413,-3.8406,-3.8424,-3.8428,-3.8431,-3.8431,-3.8332,-3.8425,-3.8425,-3.8425,-3.8425,-3.8425,0,-3.775,-3.7784,-3.7838,-3.7904,-3.795,-3.7954,-3.8007,-3.8045,-3.8103,-3.8152,-3.8202,-3.8275,-3.8336,-3.8382,-3.8444,-3.8477,-3.8482,-3.8492,-3.8489,-3.8496,-3.8435,-3.8417,-3.8487,-3.8487,-3.8487,-3.8487,-3.8487,-3.8487,-3.7796,-3.7865,-3.7886,-3.7975,-3.8009,-3.8074,-3.8103,-3.8145,-3.8183,-3.8263,-3.8313,-3.8343,-3.839,-3.8456,-3.8512,-3.8524,-3.8545,-3.8554,-3.8566,-3.8507,-3.85,-3.8494,-3.8478,-3.8559,-3.8559,-3.8623,-3.8623,-3.8624]},{"header":{"parameterUnit":"m.s-1","parameterCategory":1,"la1":30.2991,"la2":30.254,"lo1":-89.0895,"lo2":-89.0444,"dy":0.0017,"dx":0.0017,"nx":28,"ny":28,"refTime":"2024-04-16T09:00:00:Z","depth":0,"parameterNumber":3,"parameterNumberName":"V-component_of_WINDS"},"data":[0,0,0,0,0,0,0,0,0,0,0,0,0,0,0,0,0,0,0,0,0,0,0,0,0,0,0,0,0,0,0,0,0,0,0,0,0,0,0,0,0,0,0,0,0,0,0,0,0,0,0,0,0,0,0,0,0,0,4.9771,4.9772,0,4.9865,4.9866,4.9868,4.9882,4.9881,4.988,4.9879,4.997,4.9973,4.9976,0,0,0,0,0,0,0,0,0,0,0,0,0,4.9597,4.96,4.9771,4.9772,4.9773,4.9865,4.9867,4.9868,4.9882,4.9881,4.988,4.9879,4.9969,4.9972,4.9976,0,0,0,0,0,0,0,0,0,0,0,0,0,4.968,4.9601,4.9771,4.9791,4.9794,4.9865,4.9867,4.9868,4.9882,4.9881,4.9879,4.9878,4.9967,4.9972,4.9977,5.0032,0,0,4.9991,4.9994,0,0,0,0,0,0,0,0,4.9675,4.9686,4.9787,4.979,4.9793,4.9861,4.9838,4.9923,4.9882,4.9848,4.9879,4.9878,4.9934,4.9941,4.9962,5.0036,5.004,4.9992,4.9995,4.9997,4.9998,0,0,0,0,0,0,0,4.9669,4.9682,4.9808,4.9788,4.9792,4.9794,4.9804,4.9854,4.9897,4.9851,4.9852,4.9864,4.9935,4.9957,4.9964,5.0041,4.9992,4.9996,4.9999,5.0001,5.0165,5.0166,0,0,0,0,0,0,4.966,4.9677,4.9805,4.9811,4.973,4.9798,4.981,4.984,4.9896,4.9904,4.9865,4.9864,4.995,4.9958,4.9967,5.0036,4.9997,5.0001,5.0004,5.0164,5.0165,5.0167,0,0,0,0,0,0,4.9657,4.9672,4.9801,4.9744,4.9761,4.9803,4.9836,4.9843,4.9864,4.9907,4.9914,4.988,4.9949,4.996,5.0016,5.0039,5.0003,5.0008,5.0162,5.0164,5.0166,5.0172,0,0,0,0,0,0,4.9652,4.967,4.9693,4.9745,4.9764,4.985,4.9838,4.9845,4.9873,4.9873,4.9923,4.9929,4.9949,5.0009,5.0021,5.0045,5.0012,5.016,5.0163,5.0165,5.017,5.0174,5.0178,0,0,0,0,0,4.9645,4.9689,4.9694,4.9709,4.9794,4.9851,4.9862,4.9885,4.9875,4.9897,4.9925,4.9928,5.0034,5.0014,5.0028,5.0054,5.0159,5.0162,5.0165,5.0168,5.0173,5.0178,0,0,0,0,0,0,4.9636,4.9696,4.9702,4.9765,4.9803,4.9854,4.9882,4.989,4.993,4.9929,4.9954,4.9965,5.0019,5.0042,5.0018,5.011,5.0095,5.0102,5.0093,5.0098,5.0102,5.0095,5.0016,0,0,0,0,0,4.9642,4.9686,4.9735,4.9786,4.9805,4.984,4.9866,4.9881,4.9921,4.9937,4.9968,5.0005,5.0047,5.0074,5.0115,5.0173,5.0184,5.0198,5.0202,5.0205,5.021,5.0242,5.0249,5.0178,5.0178,5.0178,0,0,4.9654,4.9692,4.9718,4.9785,4.9816,4.986,4.9854,4.99,4.9932,4.9943,4.9998,5.0022,5.0065,5.0123,5.015,5.0143,5.0232,5.0209,5.0211,5.0214,5.0246,5.0253,5.0259,5.018,5.018,5.0179,0,0,4.9697,4.9731,4.9777,4.9809,4.9857,4.9881,4.9892,4.9942,4.9959,5.0015,5.0025,5.0062,5.0134,5.0164,5.0189,5.0244,5.0248,5.0256,5.0277,5.0308,5.0314,5.0319,5.0339,5.0345,5.0261,5.0261,5.0261,0,4.9704,4.9772,4.9798,4.9845,4.9874,4.9889,4.9934,4.9964,5.0022,5.0041,5.0034,5.0125,5.0154,5.0219,5.0233,5.0253,5.0265,5.0251,5.0311,5.0317,5.0322,5.0341,5.0348,5.0262,5.0262,5.0262,5.0262,0,4.9779,4.9826,4.9857,4.9916,4.9948,4.9993,5.0025,5.0054,5.0066,5.009,5.0147,5.0183,5.0232,5.0248,5.0259,5.0315,5.031,5.0307,5.0292,5.0329,5.0347,5.0354,5.0263,5.0263,5.0263,5.0262,0,0,4.9819,4.9893,4.9904,4.9931,4.9986,5.0021,5.0067,5.0117,5.0141,5.0181,5.0219,5.028,5.0278,5.0306,5.0321,5.0349,5.039,5.0342,5.0344,5.035,5.0453,5.0455,5.0463,5.0394,5.0395,5.0396,5.045,0,4.9868,4.9953,4.9979,5.0049,5.0092,5.0107,5.0147,5.0184,5.0207,5.0245,5.027,5.0313,5.0307,5.0324,5.0353,5.0379,5.0411,5.0376,5.0428,5.043,5.0417,5.0473,5.0475,5.0523,5.0457,5.0458,5.0459,0,4.9938,4.9982,5.0057,5.0107,5.0126,5.0162,5.021,5.0247,5.0289,5.0304,5.0336,5.0348,5.0395,5.0379,5.0443,5.0418,5.0441,5.0457,5.046,5.0465,5.0446,5.0479,5.0539,5.0547,5.047,5.0469,5.0469,0,4.9959,5.0037,5.0092,5.0115,5.0175,5.0199,5.0225,5.0266,5.0294,5.0335,5.0354,5.0399,5.0423,5.0457,5.0481,5.0467,5.0543,5.0529,5.0555,5.0555,5.0571,5.0569,5.0635,5.0585,5.0585,5.0585,5.0585,0,5.0012,5.0058,5.0103,5.0137,5.0188,5.0216,5.0265,5.0291,5.0327,5.0365,5.038,5.0414,5.0444,5.0482,5.0501,5.0551,5.0562,5.0574,5.0579,5.0573,5.0571,5.0588,5.0585,5.0587,5.0587,5.0586,5.0586,0,5.0045,5.0077,5.0139,5.0191,5.0205,5.024,5.0284,5.0317,5.0341,5.0389,5.0401,5.0439,5.0485,5.0512,5.0569,5.0582,5.0637,5.064,5.0624,5.0626,5.0651,5.0649,5.073,5.0742,5.0684,5.0685,5.0685,0,5.0077,5.0113,5.0169,5.0197,5.0224,5.0268,5.0298,5.0326,5.0356,5.0407,5.0433,5.048,5.052,5.0592,5.0623,5.0667,5.0671,5.0696,5.0677,5.0671,5.0671,5.0669,5.0672,5.0699,5.07,5.07,5.0701,0,5.013,5.0144,5.0188,5.0237,5.0273,5.0312,5.0351,5.0372,5.0407,5.044,5.0488,5.0519,5.0579,5.0625,5.0672,5.0696,5.0704,5.0707,5.0715,5.071,5.0699,5.0705,5.0633,5.0704,5.0704,5.0704,5.0703,5.0703,5.0163,5.0196,5.0241,5.0289,5.0322,5.0358,5.0392,5.0421,5.0463,5.0515,5.0529,5.058,5.062,5.0684,5.0709,5.0748,5.0744,5.0756,5.0759,5.0762,5.0763,5.0693,5.0757,5.0757,5.0756,5.0756,5.0756,0,5.0217,5.0247,5.0291,5.0347,5.0384,5.039,5.0434,5.0464,5.0509,5.0548,5.0587,5.0642,5.0687,5.0722,5.0768,5.0793,5.0797,5.0804,5.0802,5.0807,5.0764,5.0752,5.0799,5.0799,5.0799,5.0799,5.0799,5.0799,5.0249,5.0305,5.0325,5.0396,5.0426,5.0478,5.0502,5.0535,5.0566,5.0628,5.0666,5.069,5.0726,5.0775,5.0816,5.0825,5.0841,5.0847,5.0857,5.0815,5.081,5.0806,5.0795,5.0851,5.0851,5.0897,5.0898,5.0898]}]]